Flag for Germany Weather past 2 weeks in Gronau (Westfalen), North Rhine-Westphalia, Germany

Now
66 °F

Fog.


Feels Like: 66 °F
Forecast: 64 / 80 °F
Wind: 3 mph from Northeast

Location: Twenthe

Current Time: Jul 28, 2014 at 9:31:32 AM

Latest Report: Jul 28, 2014 at 8:00 AM


Visibility: 2 mi

Pressure: 29.93 "Hg

Humidity: 91%

Dew point: 63 °F

Location of Gronau (Westfalen)Location

Historic Weather in Gronau (Westfalen) — Graph

°F

Gronau (Westfalen) temperature yesterday

Maximum temperature yesterday: 78 °F (at 6:00 PM)
Minimum temperature yesterday: 60 °F (at 1:00 AM)
Average temperature yesterday: 68 °F

Past Weeks' High & Low Weather Summary

 TemperatureHumidityPressure
High92 °F (Jul 19, 4:00 PM)100% (Jul 16, 4:00 AM)30.20 "Hg (Jul 16, 4:00 AM)
Low52 °F (Jul 16, 5:00 AM)28% (Jul 19, 4:00 PM)29.69 "Hg (Jul 13, 7:00 PM)
Average69 °F77%29.98 "Hg
* Reported Jul 13 8:00 AM — Jul 28 8:00 AM, Gronau (Westfalen), Weather by CustomWeather, © 2014

Note: Actual official high and low records may vary slightly from our data, if they occured in-between our weather recording intervals... More about our weather records

Advertising

Gronau (Westfalen) weather history for previous 24 hours

 ConditionsComfort  
Time TempWeatherWind HumidityBarometerVisibility
8:00 AM
Jul 28
66 °FFog.3 mph91%29.93 "Hg2 mi
7:00 AM64 °FFog.3 mph96%29.93 "Hg1 mi
6:00 AM62 °FFog.2 mph97%29.93 "Hg1 mi
5:00 AM63 °FFog.2 mph96%29.95 "Hg3 mi
4:00 AM62 °FFog.2 mph95%29.95 "Hg4 mi
3:00 AM65 °FOvercast.2 mph88%29.95 "Hg8 mi
2:00 AM65 °FOvercast.2 mph88%29.97 "Hg9 mi
1:00 AM66 °FOvercast.5 mph88%29.98 "Hg9 mi
12:00 AM63 °FFog.1 mph99%29.98 "Hg3 mi
11:00 PM
Jul 27
64 °FFog.No wind97%29.99 "Hg6 mi
10:00 PM66 °FFog.N/A93%29.99 "Hg6 mi
9:00 PM68 °FPartly sunny.1 mph84%29.98 "Hg11 mi
8:00 PM74 °FSunny.2 mph67%29.97 "Hg17 mi
7:00 PM77 °FSunny.3 mph57%29.96 "Hg17 mi
6:00 PM78 °FFog.3 mph60%29.96 "Hg14 mi
5:00 PM77 °FFog.5 mph59%29.97 "Hg14 mi
4:00 PM77 °FScattered clouds.5 mph61%29.97 "Hg17 mi
3:00 PM76 °FPassing clouds.5 mph65%29.98 "Hg19 mi
2:00 PM75 °FPartly sunny.5 mph68%29.99 "Hg18 mi
1:00 PM75 °FScattered clouds.3 mph73%29.98 "Hg13 mi
12:00 PM73 °FPartly sunny.3 mph73%29.98 "Hg9 mi
11:00 AM70 °FFog.3 mph85%29.98 "Hg4 mi
10:00 AM67 °FLow clouds.3 mph93%29.98 "Hg3 mi
9:00 AM67 °FFog.3 mph93%29.98 "Hg2 mi
Weather by CustomWeather, © 2014

See weather overviewHow to use our weather pages